Nashua, NH

5:55 AM EDT on August 20, 2019 (GMT -0400)
Boire

Weather History for KASH - May, 2019

Change the Weather History Date:

Saturday, May 4, 2019

  Actual Average Record
Temperature  
Mean Temperature 54 °F -  
Max Temperature 64 °F 61 °F 91 °F (2001)
Min Temperature 46 °F 39 °F 27 °F (1966)
Degree Days  
Heating Degree Days 10    
Growing Degree Days 4 (Base 50)    
Moisture  
Dew Point 50 °F    
Average Humidity 95    
Maximum Humidity 100    
Minimum Humidity 75    
Precipitation  
Precipitation 0.05 in - - ()
Sea Level Pressure  
Sea Level Pressure 29.94 in    
Wind  
Wind Speed 1 mph (ENE)    
Max Wind Speed 7 mph    
Max Gust Speed -    
Visibility 7 miles    
Events Fog , Rain    
Averages and records for this station are not official NWS values.
T = Trace of Precipitation, MM = Missing Value Source: NWS Daily Summary

Daily Weather History Graph

Daily Weather History Graph

Search for Another Location

Airport or City:

Astronomy

May. 04, 2019 Rise Set
Actual Time 5:36 AM EDT 7:49 PM EDT
Civil Twilight 5:05 AM EDT 8:21 PM EDT
Nautical Twilight 4:27 AM EDT 8:59 PM EDT
Astronomical Twilight 3:44 AM EDT 9:42 PM EDT
Moon 5:49 AM EDT (5/4) 7:34 PM EDT (5/4)
Length of Visible Light 15h 15m
Length of Day
14h 13m
Waning Crescent, 0% of the Moon is Illuminated
May 4
Waning Crescent
May 4
New
May 11
First Quarter
May 18
Full
May 26
Last Quarter

Hourly Weather History & Observations

Time (EDT) Temp. Windchill Dew Point Humidity Pressure Visibility Wind Dir Wind Speed Gust Speed Precip Events Conditions
12:56 AM 48.9 °F - 48.9 °F 100% 29.99 in 4.0 mi Calm Calm - 0.00 in Rain Light Rain
1:05 AM 48.2 °F - 48.2 °F 100% 29.96 in 2.0 mi Calm Calm - 0.00 in Rain Light Rain
1:22 AM 48.2 °F - 48.2 °F 100% 29.95 in 1.2 mi Calm Calm - 0.00 in   Overcast
1:28 AM 48.2 °F - 48.2 °F 100% 29.95 in 0.8 mi Calm Calm - 0.00 in   Overcast
1:56 AM 48.9 °F - 48.9 °F 100% 29.98 in 0.5 mi Calm Calm - 0.00 in Fog Fog
2:56 AM 48.0 °F - 48.0 °F 100% 29.96 in 0.5 mi North 3.5 mph - N/A Fog Fog
3:56 AM 46.9 °F - 46.9 °F 100% 29.97 in 0.5 mi Calm Calm - 0.00 in Fog , Rain Light Rain
4:13 AM 46.4 °F - 46.4 °F 100% 29.94 in 0.8 mi Calm Calm - 0.00 in Rain Light Rain
4:32 AM 46.4 °F 45.2 °F 46.4 °F 100% 29.94 in 0.5 mi NNW 3.5 mph - 0.01 in Fog , Rain Light Rain
4:40 AM 46.4 °F 45.2 °F 46.4 °F 100% 29.94 in 0.8 mi North 3.5 mph - 0.01 in Rain Light Rain
4:44 AM 46.4 °F 45.2 °F 46.4 °F 100% 29.93 in 1.2 mi North 3.5 mph - 0.01 in Rain Light Rain
4:56 AM 46.9 °F - 46.9 °F 100% 29.97 in 2.5 mi Calm Calm - 0.01 in Rain Light Rain
5:13 AM 46.4 °F - 46.4 °F 100% 29.93 in 5.0 mi Calm Calm - 0.01 in Rain Light Rain
5:46 AM 46.4 °F 43.5 °F 46.4 °F 100% 29.89 in 7.0 mi NNE 5.8 mph - 0.02 in Rain Light Rain
5:56 AM 46.9 °F - 46.9 °F 100% 29.92 in 6.0 mi ENE 4.6 mph - 0.03 in Rain Light Rain
6:56 AM 46.9 °F - 46.9 °F 100% 29.96 in 6.0 mi Calm Calm - 0.00 in Rain Light Rain
7:06 AM 46.4 °F 45.2 °F 46.4 °F 100% 29.93 in 10.0 mi NNW 3.5 mph - 0.00 in Rain Light Rain
7:19 AM 46.4 °F - 46.4 °F 100% 29.94 in 10.0 mi Calm Calm - 0.00 in Rain Light Rain
7:56 AM 48.0 °F - 48.0 °F 100% 29.98 in 10.0 mi NW 3.5 mph - 0.00 in Rain Light Rain
8:32 AM 48.2 °F - 48.2 °F 100% 29.95 in 10.0 mi Calm Calm - 0.00 in   Overcast
8:56 AM 48.9 °F - 48.9 °F 100% 29.99 in 10.0 mi Calm Calm - 0.00 in   Overcast
9:56 AM 51.1 °F - 51.1 °F 100% 29.98 in 10.0 mi Calm Calm - N/A   Overcast
10:56 AM 53.1 °F - 52.0 °F 96% 29.98 in 10.0 mi Calm Calm - 0.01 in   Overcast
11:40 AM 53.6 °F - 53.6 °F 100% 29.93 in 10.0 mi Calm Calm - N/A   Overcast
11:56 AM 55.0 °F - 53.1 °F 93% 29.96 in 10.0 mi Calm Calm - N/A   Overcast
12:56 PM 57.0 °F - 53.1 °F 87% 29.94 in 10.0 mi Calm Calm - N/A   Overcast
1:53 PM 60.8 °F - 55.4 °F 82% 29.90 in 10.0 mi Variable 5.8 mph - N/A   Overcast
1:56 PM 60.1 °F - 54.0 °F 80% 29.94 in 10.0 mi Variable 5.8 mph - N/A   Overcast
2:56 PM 61.0 °F - 55.0 °F 81% 29.92 in 10.0 mi East 5.8 mph - N/A   Overcast
3:56 PM 61.0 °F - 55.0 °F 81% 29.90 in 10.0 mi Calm Calm - N/A   Overcast
4:56 PM 63.0 °F - 55.0 °F 75% 29.89 in 10.0 mi ESE 6.9 mph - N/A   Overcast
5:56 PM 61.0 °F - 55.0 °F 81% 29.89 in 10.0 mi SE 3.5 mph - N/A   Mostly Cloudy
6:56 PM 61.0 °F - 55.0 °F 81% 29.89 in 10.0 mi SSE 4.6 mph - N/A   Mostly Cloudy
7:56 PM 59.0 °F - 55.9 °F 90% 29.89 in 10.0 mi SE 5.8 mph - N/A   Mostly Cloudy
8:56 PM 55.9 °F - 54.0 °F 93% 29.91 in 10.0 mi Calm Calm - N/A   Mostly Cloudy
9:56 PM 55.0 °F - 53.1 °F 93% 29.91 in 10.0 mi SSE 3.5 mph - N/A   Partly Cloudy
10:56 PM 53.1 °F - 52.0 °F 96% 29.91 in 10.0 mi SE 4.6 mph - N/A   Partly Cloudy
11:38 PM 51.8 °F - 51.8 °F 100% 29.87 in 10.0 mi Calm Calm - N/A   Overcast
11:56 PM 53.1 °F - 51.1 °F 93% 29.91 in 10.0 mi Calm Calm - N/A   Overcast